星链-36402(STARLINK-36402)

导读

STARLINK-36402(NORAD编号68966)是SpaceX星链(Starlink)卫星互联网星座中的一颗卫星,属于低轨通信卫星范畴。星链项目旨在构建全球覆盖的卫星互联网系统,为地面提供低成本、高性能的宽带网络服务。2026年SpaceX为提升太空安全,计划将约4400颗星链卫星轨道从550公里降至480公里,该卫星作为星链组网成员,或在此调整范围内,降低轨道可加快故障卫星再入大气层销毁,减少太空碎片与碰撞风险。

Basic Information
目录编号:
68966
目录名称:
STARLINK-36402
国际标识:
2026-099R
轨道中心:
EARTH
卫星名称:
星链-36402
卫星全名:
星链-36402(STARLINK-36402)
卫星状态:
在轨 (已飞行126 天)
发射日期:
2026-05-01 UTC
国别 :
美国 (US)
星等 :
--
Orbit Information
数据来源 国际轨道数据
星历时间: 2026-09-03T11:52:44+0800
1天前
查看轨道信息
半长轴: 6840.803km
偏心率: 0.0001171
轨道倾角: 53.158°
近地点辐角 72.808°
升交点赤经 156.766°
平近点角 287.306°
近地点: 461.864km
远地点: 463.468km
周期: 93.847分钟
每日圈数: 15.344127
Detailed Information
固有亮度:
5
最大亮度:
2.5
卫星平台:
Starlink V1.0
覆盖范围:
全球
运营商:
太空探索技术公司
运营商所在国:
美国
制造商(研发单位):
太空探索技术公司
制造商所在国:
美国
使用方式:
暂无
Satellite Introduction
Starlink 计划是 SpaceX 推出的全球卫星互联网项目,通过发射低轨道卫星,为全球尤其是偏远地区提供高速、低延迟的互联网服务。自 2019 年起,Starlink 已部署数千颗卫星,旨在缩小全球数字鸿沟,推动互联网普及。该项目还为军事、航空等行业提供通信支持,带来广泛经济效益。
2D Orbit Map
3D Orbit Map
Orbit Altitude Analysis Chart
Orbit Inclination Analysis Chart
Orbit Comprehensive Analysis Chart
View Comprehensive Chart
Conjunction Data List
Event ID Objects TCA Miss Dist (km) Collision Risk Probability Collision Risk Index (CRI) Action
CDM_260905-023804-377106-896621
OBJECT P (43771)
2026-09-05T
02:38:52+0000
1.209 km
极远距离
1.39353E-5 中风险 0.58
CDM_260827-234906-059706-896621
2026-08-27T
23:49:09+0000
1.134 km
极远距离
7.960867E-6 低风险 0.53
CDM_260905-095605-475006-896621
2026-09-05T
09:56:59+0000
2.054 km
极远距离
1.972538E-6 低风险 0.41
CDM_260904-001105-248806-896621
2026-09-04T
00:11:34+0000
2.375 km
极远距离
1.723725E-6 低风险 0.4
CDM_260905-062805-419206-896621
2026-09-05T
06:28:31+0000
2.390 km
极远距离
1.53321E-6 低风险 0.39